User: anonymous   Login
Location: Ellerstadt
(49.4644°N, 8.2615°E)
Time: 21:12:24
(UTC+00:00)
Language:

deb Kosmos-2227 - Orbit

View from above orbital plane
View from above orbital plane
View from above satellite
View from above satellite

Ground track
Ground track

The orbit data is extracted from the following two-line orbital elements,

1 23302U 92093JH  21262.40262578  .00000196  00000-0  13492-3 0  9998
2 23302  71.1262 130.9874 0124444  70.9696 102.6698 14.06793269410137
Epoch (UTC): 19 September 2021 09:39:46
Eccentricity: 0.0124444
inclination: 71.1262°
perigee height: 780 km
apogee height: 960 km
right ascension of ascending node: 130.9874°
argument of perigee: 70.9696°
revolutions per day: 14.06793269
mean anomaly at epoch: 102.6698°
orbit number at epoch: 41013

The dashed part of the orbit path shows where the satellite is in the earth's shadow,  

DLR